Tracking 22124 objects as of 23-Jan-2021
HD Live streaming from Space Station
objects crossing your sky now

COSMOS 1037

Track COSMOS 1037 now!
10-day predictions
COSMOS 1037 is classified as:


NORAD ID: 11046
Int'l Code: 1978-091D
Perigee: 1,468.4 km
Apogee: 1,488.5 km
Inclination: 74.0 °
Period: 115.4 minutes
Semi major axis: 7849 km
RCS: 0.7202 m2 (medium)
Launch date: October 4, 1978
Source: Commonwealth of Independent States (former USSR) (CIS)
Launch site: PLESETSK MISSILE AND SPACE COMPLEX (PKMTR)
aabbcc
Your satellite tracking list
Your tracking list is empty




NASA's NSSDC Master Catalog

Two Line Element Set (TLE):
1 11046U 78091D   21022.77362819 -.00000021  00000-0 -33762-4 0  9997
2 11046  74.0350 138.0862 0012778   4.8858 110.0641 12.48372927927870
Source of the keplerian elements: AFSPC